Location: Drummondville
(45.8830°N, 72.4830°W)
Time: 12:37:06
(UTC-05:00)

Envisat - Pass Details

Date: 11 November 2017
Orbit: 764 x 766 km, 98.2° (Epoch: 19 November)

Event Time Altitude Azimuth Distance (km) Brightness Sun altitude
Exits shadow 18:46:13 16° 10° (N) 1,900 4.9 -25.1°
Drops below altitude 10° 18:47:24 10° 3° (N) 2,312 5.4 -25.3°
Sets 18:49:52 0° 354° (N) 3,243 6.3 -25.7°
